{"data":{"norad_id":40549,"epoch":"2026-09-16T01:27:51.734016Z","epoch_age_seconds":397765,"freshness":"STALE","line1":"1 40549U 15019A   26259.06101544 -.00000163  00000+0  00000+0 0  9992","line2":"2 40549  49.0213 294.3587 0038861 201.0354 337.5544  1.00288882 41982","mean_motion":1.00288882,"eccentricity":0.0038861,"inclination_deg":49.0213,"raan_deg":294.3587,"arg_perigee_deg":201.0354,"mean_anomaly_deg":337.5544,"bstar":0,"rev_number":4198,"period_min":1435.8520817891,"perigee_km":35617.964990573,"apogee_km":35945.640474161,"semimajor_km":42159.939732367,"source":"CELESTRAK","updated_at":"2026-09-20T09:00:46.673280Z"}}